Weather History for Rensselaer, IN

Change the Weather History Date:

Sunday, January 19, 2014

  Actual Average (KVPZ) Record (KVPZ)
Temperature  
Mean Temperature 20 °F 23 °F  
Max Temperature 35 °F 31 °F 55 °F (2006)
Min Temperature 6 °F 16 °F -3 °F (2003)
Degree Days  
Heating Degree Days 44 42  
Month to date heating degree days 789  
Since 1 July heating degree days 3191  
Cooling Degree Days 0 0  
Month to date cooling degree days 0  
Year to date cooling degree days 0  
Moisture  
Dew Point 20 °F    
Average Humidity 90    
Maximum Humidity 100    
Minimum Humidity 80    
Precipitation  
Precipitation 0.00 in 0.06 in 0.07 in (2009)
Month to date precipitation 1.04  
Year to date precipitation 1.04  
Sea Level Pressure  
Sea Level Pressure 29.76 in    
Wind  
Wind Speed 12 mph (SW)    
Max Wind Speed 26 mph    
Max Gust Speed 37 mph    
Visibility 7 miles    
Events Snow    
T = Trace of Precipitation, MM = Missing Value Source: NWS Daily Summary

Daily Weather History Graph

Daily Weather History Graph

Search for Another Location

Airport:

Trip Planner

Search our weather history database for the weather conditions in past years. The results will help you decide how hot, cold, wet, or windy it might be!

Date:

Astronomy

Jan. 19, 2014 Rise Set
Actual Time 7:09 AM CST 4:50 PM CST
Civil Twilight 6:39 AM CST 5:20 PM CST
Nautical Twilight 6:05 AM CST 5:53 PM CST
Astronomical Twilight 5:32 AM CST 6:26 PM CST
Moon 8:29 PM CST (1/19) 8:37 AM CST (1/19)
Length of Visible Light 10h 40m
Length of Day
9h 40m
Waning Gibbous, 89% of the Moon is Illuminated
Jan 19
Waning Gibbous
Jan 23
Last Quarter
Jan 30
New
Feb 6
First Quarter
Feb 14
Full

Hourly Weather History & Observations

Time (CST) Temp. Windchill Dew Point Humidity Pressure Visibility Wind Dir Wind Speed Gust Speed Precip Events Conditions
12:15 AM 10.4 °F 2.2 °F 8.6 °F 92% 29.84 in 5.0 mi NW 4.6 mph - N/A   Clear
12:35 AM 8.6 °F 2.0 °F 6.8 °F 92% 29.83 in 5.0 mi WNW 3.5 mph - N/A   Scattered Clouds
12:55 AM 10.4 °F 2.2 °F 8.6 °F 92% 29.84 in 5.0 mi WNW 4.6 mph - N/A   Mostly Cloudy
1:15 AM 12.2 °F 6.1 °F 10.4 °F 92% 29.85 in 5.0 mi West 3.5 mph - N/A   Overcast
1:35 AM 10.4 °F 2.2 °F 8.6 °F 92% 29.85 in 7.0 mi WSW 4.6 mph - N/A   Mostly Cloudy
1:55 AM 10.4 °F 0.8 °F 8.6 °F 92% 29.86 in 5.0 mi West 5.8 mph - N/A   Scattered Clouds
2:15 AM 8.6 °F -2.6 °F 6.8 °F 92% 29.88 in 5.0 mi West 6.9 mph - N/A   Scattered Clouds
2:35 AM 12.2 °F 2.9 °F 10.4 °F 92% 29.87 in 1.2 mi West 5.8 mph - N/A Snow Light Snow
2:55 AM 12.2 °F 4.3 °F 10.4 °F 92% 29.88 in 2.0 mi West 4.6 mph - N/A   Overcast
3:15 AM 12.2 °F 6.1 °F 12.2 °F 100% 29.88 in 2.5 mi WSW 3.5 mph - N/A   Overcast
3:35 AM 12.2 °F 1.7 °F 12.2 °F 100% 29.89 in 1.8 mi SW 6.9 mph - N/A   Overcast
3:55 AM 12.2 °F 1.7 °F 10.4 °F 92% 29.89 in 1.5 mi WSW 6.9 mph - N/A Snow Light Snow
4:15 AM 10.4 °F -0.4 °F 8.6 °F 92% 29.90 in 2.5 mi WSW 6.9 mph - N/A Snow Light Snow
4:35 AM 10.4 °F -1.5 °F 8.6 °F 92% 29.90 in 4.0 mi SW 8.1 mph - N/A   Overcast
4:55 AM 8.6 °F -3.7 °F 6.8 °F 92% 29.90 in 7.0 mi SW 8.1 mph - N/A   Mostly Cloudy
5:15 AM 6.8 °F -5.9 °F 5.0 °F 92% 29.90 in 7.0 mi SW 8.1 mph - N/A   Clear
5:35 AM 6.8 °F -4.8 °F 3.2 °F 85% 29.89 in 10.0 mi SW 6.9 mph - N/A   Clear
5:55 AM 8.6 °F -2.6 °F 5.0 °F 85% 29.89 in 10.0 mi SSW 6.9 mph - N/A   Clear
6:15 AM 8.6 °F -3.7 °F 6.8 °F 92% 29.89 in 10.0 mi SW 8.1 mph - N/A   Clear
6:35 AM 8.6 °F -3.7 °F 6.8 °F 92% 29.88 in 10.0 mi SSW 8.1 mph - N/A   Clear
6:55 AM 8.6 °F -3.7 °F 6.8 °F 92% 29.88 in 7.0 mi SSW 8.1 mph - N/A   Clear
7:15 AM 10.4 °F -2.4 °F 8.6 °F 92% 29.87 in 7.0 mi SSW 9.2 mph - N/A   Clear
7:35 AM 12.2 °F -1.8 °F 10.4 °F 92% 29.86 in 10.0 mi SSW 11.5 mph - N/A   Clear
7:55 AM 14.0 °F 1.2 °F 12.2 °F 93% 29.85 in 10.0 mi SSW 10.4 mph - N/A   Clear
8:15 AM 15.8 °F 2.7 °F 14.0 °F 93% 29.86 in 10.0 mi SSW 11.5 mph - N/A   Clear
8:35 AM 17.6 °F 4.3 °F 15.8 °F 93% 29.86 in 0.8 mi SSW 12.7 mph - N/A Snow Light Snow
8:55 AM 17.6 °F 3.2 °F 17.6 °F 100% 29.85 in 0.2 mi SSW 15.0 mph 21.9 mph N/A Snow Heavy Snow
9:15 AM 17.6 °F 0.9 °F 17.6 °F 100% 29.86 in 0.2 mi SSW 20.7 mph 26.5 mph N/A Snow Light Snow
9:35 AM 19.4 °F 3.2 °F 17.6 °F 93% 29.86 in 0.2 mi SW 20.7 mph 27.6 mph N/A Snow Snow
9:55 AM 19.4 °F 3.2 °F 19.4 °F 100% 29.85 in 0.5 mi SSW 20.7 mph 27.6 mph N/A Snow Snow
10:15 AM 21.2 °F 5.6 °F 19.4 °F 93% 29.85 in 0.8 mi SSW 20.7 mph 28.8 mph N/A   Mist
10:35 AM 21.2 °F 4.5 °F 21.2 °F 100% 29.84 in 1.0 mi SSW 24.2 mph 29.9 mph N/A   Mist
10:55 AM 23.0 °F 6.6 °F 21.2 °F 93% 29.83 in 1.5 mi SW 25.3 mph 32.2 mph N/A   Mist
11:15 AM 23.0 °F 6.9 °F 23.0 °F 100% 29.81 in 4.0 mi SSW 24.2 mph 32.2 mph N/A   Clear
11:35 AM 26.6 °F 12.7 °F 21.2 °F 80% 29.79 in 4.0 mi SSW 20.7 mph 31.1 mph N/A   Clear
11:55 AM 26.6 °F 11.1 °F 23.0 °F 86% 29.78 in 3.0 mi SSW 26.5 mph 33.4 mph N/A   Clear
12:15 PM 26.6 °F 12.0 °F 23.0 °F 86% 29.75 in 4.0 mi SSW 23.0 mph 31.1 mph N/A   Clear
12:35 PM 28.4 °F 13.5 °F 23.0 °F 80% 29.74 in 4.0 mi SSW 26.5 mph 31.1 mph N/A   Clear
12:55 PM 28.4 °F 13.5 °F 24.8 °F 86% 29.73 in 5.0 mi SSW 26.5 mph 32.2 mph N/A   Clear
1:15 PM 30.2 °F 16.5 °F 26.6 °F 86% 29.71 in 5.0 mi SSW 24.2 mph 36.8 mph N/A   Clear
1:35 PM 30.2 °F 18.1 °F 26.6 °F 86% 29.71 in 7.0 mi SSW 18.4 mph 25.3 mph N/A   Clear
1:55 PM 30.2 °F 16.2 °F 26.6 °F 86% 29.70 in 5.0 mi SW 25.3 mph 31.1 mph N/A   Clear
2:15 PM 30.2 °F 16.5 °F 26.6 °F 86% 29.69 in 7.0 mi SSW 24.2 mph 29.9 mph N/A   Clear
2:35 PM 32.0 °F 18.6 °F 28.4 °F 87% 29.69 in 5.0 mi SW 25.3 mph 33.4 mph N/A   Haze
2:55 PM 32.0 °F 20.1 °F 28.4 °F 87% 29.69 in 10.0 mi SSW 19.6 mph 27.6 mph N/A   Clear
3:15 PM 32.0 °F 19.2 °F 28.4 °F 87% 29.69 in 10.0 mi SW 23.0 mph 28.8 mph N/A   Clear
3:35 PM 32.0 °F 20.5 °F 28.4 °F 87% 29.68 in 10.0 mi SSW 18.4 mph 26.5 mph N/A   Clear
3:55 PM 32.0 °F 20.8 °F 28.4 °F 87% 29.67 in 10.0 mi SSW 17.3 mph 25.3 mph N/A   Clear
4:15 PM 32.0 °F 20.8 °F 30.2 °F 93% 29.67 in 10.0 mi SSW 17.3 mph - N/A   Clear
4:35 PM 32.0 °F 19.8 °F 30.2 °F 93% 29.67 in 10.0 mi SSW 20.7 mph 24.2 mph N/A   Clear
4:55 PM 32.0 °F 18.9 °F 30.2 °F 93% 29.65 in 10.0 mi SSW 24.2 mph 31.1 mph N/A   Clear
5:15 PM 32.0 °F 18.4 °F 30.2 °F 93% 29.65 in 10.0 mi SSW 26.5 mph 31.1 mph N/A   Clear
5:35 PM 32.0 °F 19.2 °F 30.2 °F 93% 29.64 in 10.0 mi SSW 23.0 mph 32.2 mph N/A   Clear
5:55 PM 33.8 °F 21.6 °F 30.2 °F 87% 29.63 in 10.0 mi SSW 23.0 mph 33.4 mph N/A   Clear
6:15 PM 33.8 °F 21.9 °F 30.2 °F 87% 29.65 in 10.0 mi SSW 21.9 mph 31.1 mph N/A   Clear
6:55 PM 33.8 °F 21.9 °F 30.2 °F 87% 29.64 in 10.0 mi SSW 21.9 mph 28.8 mph N/A   Clear
7:15 PM 33.8 °F 22.2 °F 30.2 °F 87% 29.63 in 10.0 mi SSW 20.7 mph 27.6 mph N/A   Clear
7:35 PM 33.8 °F 21.9 °F 30.2 °F 87% 29.63 in 10.0 mi SSW 21.9 mph 31.1 mph N/A   Clear
7:55 PM 33.8 °F 22.2 °F 30.2 °F 87% 29.62 in 10.0 mi SSW 20.7 mph - N/A   Clear
8:15 PM 33.8 °F 21.9 °F 30.2 °F 87% 29.62 in 10.0 mi SSW 21.9 mph 26.5 mph N/A   Clear
8:35 PM 33.8 °F 22.5 °F 30.2 °F 87% 29.61 in 10.0 mi SSW 19.6 mph 29.9 mph N/A   Clear
8:55 PM 33.8 °F 22.2 °F 30.2 °F 87% 29.61 in 10.0 mi SSW 20.7 mph 26.5 mph N/A   Clear
9:15 PM 33.8 °F 21.9 °F 30.2 °F 87% 29.60 in 10.0 mi SSW 21.9 mph - N/A   Clear
9:35 PM 33.8 °F 23.2 °F 30.2 °F 87% 29.59 in 10.0 mi SSW 17.3 mph 23.0 mph N/A   Clear
9:55 PM 33.8 °F 22.5 °F 30.2 °F 87% 29.59 in 10.0 mi SSW 19.6 mph - N/A   Clear
10:15 PM 33.8 °F 22.5 °F 30.2 °F 87% 29.59 in 10.0 mi SSW 19.6 mph 24.2 mph N/A   Clear
10:35 PM 33.8 °F 23.5 °F 30.2 °F 87% 29.59 in 10.0 mi SW 16.1 mph 23.0 mph N/A   Clear
10:55 PM 35.6 °F 25.5 °F 30.2 °F 81% 29.58 in 10.0 mi SW 17.3 mph 24.2 mph N/A   Clear
11:15 PM 35.6 °F 26.2 °F 30.2 °F 81% 29.58 in 10.0 mi SW 15.0 mph 24.2 mph N/A   Clear
11:35 PM 33.8 °F 24.3 °F 30.2 °F 87% 29.59 in 10.0 mi SW 13.8 mph - N/A   Clear
11:55 PM 33.8 °F 24.3 °F 30.2 °F 87% 29.59 in 10.0 mi SW 13.8 mph - N/A   Clear